Location: Peterborough
(44.3091°N, 78.3197°W)
Time: 06:55:13
(UTC-04:00)

Vanguard 3 - Pass Details

Date: 25 February 2024
Orbit: 510 x 3234 km, 33.3° (Epoch: 24 April)

Event Time Altitude Azimuth Distance (km) Brightness Sun altitude
Rises 20:19:32 0° 229° (SW) 6,729 12.3 -26.4°
Reaches altitude 10° 20:24:01 10° 224° (SW) 5,923 11.8 -27.1°
Maximum altitude 20:41:53 47° 158° (SSE) 3,861 10.2 -30.2°
Enters shadow 20:46:25 42° 129° (SE) 3,946 10.1 -31.0°
